Miscellaneous Local Product
Issued by NWS Hastings, NE

Home | Current Version | Previous Version | Text Only | Print | Product List | Glossary Off
Versions: 1 2 3 4 5 6 7 8 9 10 11 12 13 14 15 16 17 18 19 20 21 22 23 24 25 26 27 28 29 30 31 32 33 34 35 36 37 38 39 40 41 42 43 44 45 46 47 48 49 50

000
AXUS43 KGID 280602
MISGRI

GID CWA HOURLY WEATHER ROUNDUP
NATIONAL WEATHER SERVICE HASTINGS NE
100 AM CDT SUN MAY 28 2017

NOTE: "FAIR" INDICATES FEW OR NO CLOUDS BELOW 12,000 FEET WITH NO
SIGNIFICANT WEATHER AND/OR OBSTRUCTIONS TO VISIBILITY.

...SOUTH CENTRAL NEBRASKA...

CITY           SKY/WX    TMP DP  RH WIND       PRES   REMARKS
GRAND ISLAND   CLOUDY    53  51  93 W8        30.00F
HASTINGS       PTCLDY    56  50  80 NW10      30.01F
KEARNEY        CLEAR     54  48  82 W9        30.03S
ORD            CLEAR     52  48  86 CALM      29.99S
YORK           MOCLDY    57  52  82 NW7       29.97F
AURORA         MOCLDY    55  51  88 NW7       29.99S
LEXINGTON      CLEAR     50  47  90 W5        30.05S
HOLDREGE       CLEAR     53  49  87 W5        30.04S
HEBRON         CLOUDY    62  55  77 NW8       29.98F

...NEBRASKA PANHANDLE...

CITY           SKY/WX    TMP DP  RH WIND       PRES   REMARKS
CHADRON        CLOUDY    49  42  77 S3        30.09S
ALLIANCE       CLEAR     43  40  89 W10       30.11R
SCOTTSBLUFF    CLEAR     46  41  82 NW5       30.15S
SIDNEY         CLEAR     42  40  92 W8        30.17R

...WESTERN AND NORTH CENTRAL NEBRASKA...

CITY           SKY/WX    TMP DP  RH WIND       PRES   REMARKS
VALENTINE      PTCLDY    55  45  68 W7        30.01S
AINSWORTH      CLOUDY    57  47  69 W9        30.01R
ONEILL         MOCLDY    55  47  74 SW9       29.96F
BROKEN BOW     PTCLDY    54  50  86 W12       30.03S
IMPERIAL       CLEAR     51  43  74 W7        30.12S
NORTH PLATTE   CLEAR     47  46  97 W5        30.08S FOG
MCCOOK         CLEAR     52  51  97 SW5       30.08F

...EASTERN NEBRASKA...

CITY           SKY/WX    TMP DP  RH WIND       PRES   REMARKS
NORFOLK        CLEAR     52  48  86 W6        29.94F
SO SIOUX CITY  LGT RAIN  57  52  83 W7        29.91F
TEKAMAH        CLEAR     59  51  75 CALM      29.93S
ALBION         CLEAR     55  50  82 NW5       29.97F
OMAHA EPPLEY   MOCLDY    60  53  77 N3        29.92S
OFFUTT AFB     PTCLDY    57  54  89 NW6       29.91F
MILLARD        PTCLDY    61  55  79 NW6       29.93S
LINCOLN        CLEAR     62  52  69 N9        29.96S
NEBRASKA CITY  PTCLDY    61  53  76 NW3       29.93S
BEATRICE       CLEAR     60  56  86 N13       29.94F
FALLS CITY     CLEAR     59  57  93 NW7       29.92R

...NORTHERN KANSAS...

CITY           SKY/WX    TMP DP  RH WIND       PRES   REMARKS
GOODLAND       CLEAR     50  47  89 NW10      30.15S
HILL CITY      PTCLDY    56  52  86 NW10      30.06F
NORTON         CLEAR     54  48  82 W12       30.06S
PHILLIPSBURG   CLEAR     55  54  94 NW8       30.04F
SMITH CENTER   CLEAR     55  54  94 NW8       30.03R
HAYS           CLOUDY    61  56  83 NW9       30.04S
RUSSELL        PTCLDY    59  55  87 NW9       30.00S
CONCORDIA      MOCLDY    61  55  81 NW9       29.97F
SALINA         PTCLDY    63  57  81 NW8       29.99R
TOPEKA         MOCLDY    63  62  97 NW9       29.91R



USA.gov is the U.S. government's official web portal to all federal, state and local government web resources and services.